Regional Weather Roundup
Issued by NWS Albany, NY

Home | Current Version | Previous Version | Text Only | Print | Product List | Glossary On
Versions: 1 2 3 4 5 6 7 8 9 10 11 12 13 14 15 16 17 18 19 20 21 22 23 24 25 26 27 28 29 30 31 32 33 34 35 36 37 38 39 40 41 42 43 44 45 46 47 48 49 50
000
ASUS41 KALY 300410
RWRALY

NEW YORK STATE HOURLY WEATHER ROUNDUP
NATIONAL WEATHER SERVICE ALBANY NY
1200 AM EDT THU JUL 30 2015

NOTE: "FAIR" INDICATES FEW OR NO CLOUDS BELOW 12,000 FEET WITH NO
SIGNIFICANT WEATHER AND/OR NO OBSTRUCTIONS TO VISIBILITY.

NYZ032-033-038>043-046>054-057>066-NYZ062>081-300500-
EAST


CITY           SKY/WX    TMP DP  RH WIND       PRES   REMARKS
ALBANY         PTCLDY    77  66  68 CALM      29.89S
GLENS FALLS    CLEAR     70  65  84 CALM      29.88S
POUGHKEEPSIE   CLEAR     74  68  81 CALM      29.91R
NEWBURGH       CLEAR     79  66  65 CALM      29.94S
MONTGOMERY     CLEAR     71  66  84 SW6       29.93R
WHITE PLAINS   CLEAR     76  71  85 CALM      29.94R
ISLIP          PTCLDY    79  73  82 SW9       29.92S
NEW YORK CITY  PTCLDY    83  71  67 SW9       29.92S
CENTRAL PARK   CLEAR     83  70  64 VRB5      29.96R
$$

NYZ005>009-017-018-044>046-055-056-300500-
CENTRAL


CITY           SKY/WX    TMP DP  RH WIND       PRES   REMARKS
FULTON         PTCLDY    71  66  84 VRB3      29.86S
SYRACUSE       PTCLDY    74  65  73 E6        29.86F
ROME           CLEAR     73  66  78 E5        29.89F
ELMIRA         PTCLDY    68  67  96 CALM      29.91F
BINGHAMTON     CLEAR     74  64  71 SW8       29.96F
MONTICELLO     CLEAR     68  66  94 CALM      29.99S
$$

NYZ026>034-041>043-300500-
NORTH


CITY           SKY/WX    TMP DP  RH WIND       PRES   REMARKS
WATERTOWN      CLEAR     74  65  73 S5        29.83F
FORT DRUM      NOT AVBL
MASSENA        CLEAR     68  64  87 CALM      29.84F
SARANAC LAKE   CLEAR     62  60  93 CALM      29.93F FOG
PLATTSBURGH    FOG       68  67  96 CALM      29.85S VSB 3/4
$$

NYZ001>004-010>016-019>021-300500-
WEST


CITY           SKY/WX    TMP DP  RH WIND       PRES   REMARKS
NIAGARA FALLS  MOCLDY    77  70  79 S7        29.84F
BUFFALO        MOCLDY    77  67  71 S6        29.86F
DUNKIRK        MOCLDY    73  68  84 S5        29.87F
JAMESTOWN      MOCLDY    72  66  83 S5        29.95S
WELLSVILLE     MOCLDY    76  66  71 SW5       29.99S
ROCHESTER      PTCLDY    76  67  73 SW6       29.86S
PENN YAN       PTCLDY    75  67  76 S7        29.91S
$$

             KEY
       WCI = WIND CHILL INDEX
       VSB = VISIBILITY
       HX  = HEAT INDEX
$$



USA.gov is the U.S. government's official web portal to all federal, state and local government web resources and services.